BEIDOU 3G2Q

Last updated on Mon Apr 22 2019 00:02:04 GMT+0000 (Coordinated Universal Time)

1 44204U 19023A 19110.85909737 -.00001292 13514-5 00000+0 0 9992 2 44204 28.4727 65.8375 7303417 179.7932 189.7510 2.28217424 06

Satellite not in orbit

BEIDOU 3G2Q